Location: Unspecified
(44.4377°N, 88.0525°W)
Time: 22:39:52
(UTC-05:00)

Resurs 1-4 Rocket - Visible Passes

Search period start: 01 May 2016 00:00
Search period end: 11 May 2016 00:00
Orbit: 799 x 815 km, 98.4° (Epoch: 01 May)

Date Brightness Start Highest point End Pass type
(mag) Time Alt. Az. Time Alt. Az. Time Alt. Az.
01 May 3.9 02:52:35 10° NE 02:56:51 24° E 03:00:24 13° SE visible
01 May 2.5 04:31:51 10° N 04:36:53 46° WNW 04:41:30 12° SW visible
02 May 4.5 02:29:06 10° NE 02:32:02 15° E 02:34:56 10° ESE visible
02 May 2.1 04:07:10 10° N 04:12:27 75° WNW 04:16:45 16° SSW visible
03 May 2.3 03:42:38 10° NNE 03:47:55 68° ESE 03:52:00 17° S visible
04 May 3.1 03:18:18 10° NNE 03:23:18 41° E 03:27:14 16° SSE visible
04 May 3.2 04:58:30 10° N 05:02:57 28° WNW 05:07:25 10° WSW visible
05 May 3.9 02:54:14 10° NE 02:58:35 25° E 03:02:29 12° SE visible
05 May 2.6 04:33:36 10° N 04:38:37 45° WNW 04:43:34 10° SW visible
06 May 4.5 02:30:42 10° NE 02:33:47 15° E 02:36:52 10° SE visible
06 May 2.1 04:08:53 10° N 04:14:10 72° WNW 04:18:49 13° SSW visible
07 May 2.3 03:44:21 10° NNE 03:49:39 71° ESE 03:54:03 15° S visible
08 May 3.1 03:20:00 10° NNE 03:25:02 43° E 03:29:17 14° SSE visible
09 May 3.8 02:55:54 10° NE 03:00:20 26° E 03:04:32 11° SSE visible
09 May 2.6 04:35:21 10° N 04:40:19 43° WNW 04:45:18 10° SW visible
10 May 4.4 02:32:17 10° NE 02:35:32 16° E 02:38:47 10° SE visible
10 May 2.1 04:10:37 10° N 04:15:53 69° WNW 04:20:51 12° SSW visible
